Theta_e
285 287 288 290 291 291 292 293 296 300 299 298 297 296 296 296 296 296 295 294 294 295
284 283 283 284 286 287 289 291 293 295 297 299 298 297 296 295 295 296 296 296 296 295
284 284 283 283 282 283 285 288 289 291 294 296 298 297 296 295 295 295 294 295 295 295
285 284 284 283 281 282 283 284 286 288 291 292 293 295 295 294 294 293 293 294 293 294
284 283 283 282 282 282 281 282 284 287 288 289 290 291 292 293 293 293 292 293 293 292
283 282 280 280 280 280 280 281 282 283 285 286 287 289 290 291 291 292 292 293 292 293
281 282 281 279 276 276 277 278 279 280 281 283 286 288 287 289 290 289 289 290 292 293
278 279 278 277 275 275 274 274 273 276 278 279 284 286 287 288 289 288 287 287 288 291
273 275 275 275 274 274 273 274 272 273 274 277 282 287 288 288 286 287 286 286 286 287
272 273 273 272 272 273 274 273 271 272 274 275 278 286 288 287 285 285 286 286 286 285
272 272 273 273 272 271 271 272 275 275 273 274 277 285 287 288 284 284 285 286 286 286
271 271 271 272 273 273 272 274 275 276 276 276 276 283 286 286 281 282 283 285 286 285
269 269 269 271 273 272 273 276 278 278 276 274 276 281 285 285 282 279 282 284 285 286
268 269 270 271 273 274 275 276 274 275 276 274 274 276 284 287 280 282 283 283 283 285
Wind_Speed
10 7 6 8 7 5 6 7 10 6 3 2 2 3 3 3 3 3 3 3 2 1
7 8 7 8 7 6 6 7 9 8 7 2 2 4 4 2 3 3 2 2 1 1
6 6 6 7 10 10 9 10 9 8 7 6 3 1 1 1 2 3 2 2 3 2
5 5 5 5 6 8 8 8 7 7 8 8 7 5 3 3 3 3 3 3 3 3
5 4 4 5 6 6 6 7 7 7 7 8 7 7 7 5 4 3 3 4 3 4
7 7 6 5 5 5 6 7 7 7 8 8 7 8 6 5 5 4 4 4 4 4
7 8 6 6 5 5 5 5 6 7 6 7 6 6 6 5 4 5 4 4 4 3
7 7 7 6 7 6 5 4 4 5 6 6 5 5 6 6 5 5 5 5 4 4
6 6 7 6 7 6 7 6 5 6 5 6 4 11 11 10 5 5 4 4 5 4
7 7 7 6 6 6 6 5 5 4 4 5 6 11 12 10 5 5 5 4 4 4
10 10 10 7 5 6 4 4 4 5 3 4 4 9 10 10 5 5 6 4 4 4
10 10 10 11 10 7 4 4 4 4 5 5 6 10 8 7 4 5 6 5 4 3
7 9 10 10 11 5 6 7 5 6 4 5 6 11 10 6 1 3 5 7 5 6
7 10 9 10 10 9 9 8 5 7 5 6 5 7 11 8 0 2 4 5 5 4
Wind_Direction
18 17 11 14 2 5 351 3 8 333 48 253 201 216 202 164 172 152 190 189 160 163
15 22 16 8 352 8 355 8 1 350 356 339 237 215 206 179 194 194 204 216 232 162
4 12 15 13 10 2 360 0 351 356 349 6 325 345 236 239 215 205 222 221 205 204
3 0 12 22 9 358 349 354 355 354 358 6 357 350 15 329 278 240 221 232 219 230
343 351 27 22 4 354 351 347 346 3 8 5 355 6 7 354 313 275 265 253 232 227
333 342 350 7 5 8 354 348 357 4 10 359 350 6 0 353 332 314 280 266 246 245
338 328 328 334 350 358 356 357 357 358 356 346 351 354 349 339 332 326 325 320 294 269
335 331 328 330 332 334 350 350 346 354 356 349 342 356 341 344 341 339 334 329 313 295
347 343 340 331 329 330 328 334 355 354 353 344 343 349 355 349 339 335 326 322 325 310
352 352 346 334 335 321 314 321 315 322 338 335 328 337 346 347 338 327 316 311 313 327
353 347 341 337 332 310 297 300 300 302 300 313 309 329 332 337 329 325 320 313 311 303
347 341 337 334 330 321 297 293 283 278 300 309 303 317 324 334 326 321 331 324 314 296
328 331 326 320 319 301 299 292 274 282 260 272 285 303 300 308 296 342 333 331 326 314
326 321 309 311 315 312 309 301 288 280 274 263 256 283 288 289 214 298 322 325 328 318